Tracking 19564 objects as of 20-Mar-2019
HD Live streaming from Space Station
objects crossing your sky now

FENGYUN 1C DEB

Track FENGYUN 1C DEB now!
10-day predictions


NORAD ID: 32114
Int'l Code: 1999-025CRG
Perigee: 699.0 km
Apogee: 814.8 km
Inclination: 100.0 °
Period: 99.8 minutes
Semi major axis: 7127 km
RCS: 0.0153 m2 (small)
Launch date: May 10, 1999
Source: People's Republic of China (PRC)
Launch site: Taiyaun Space Center, China (TSC)

Note: This is SATELLITE DEBRIS
aabbcc
Your satellite tracking list
Your tracking list is empty




NASA's NSSDC Master Catalog

Two Line Element Set (TLE):
1 32114U 99025CRG 19072.21868763  .00000244  00000-0  88223-4 0  9993
2 32114  99.9618  74.0746 0081205 326.1649  33.4370 14.42642644612657
Source of the keplerian elements: AFSPC